Regional Weather Roundup
Issued by NWS Upton, NY

Current Version | Previous Version | Text Only | Print | Product List | Glossary Off
Versions: 1 2 3 4 5 6 7 8 9 10 11 12 13 14 15 16 17 18 19 20 21 22 23 24 25 26 27 28 29 30 31 32 33 34 35 36 37 38 39 40 41 42 43 44 45 46 47 48 49 50
756 ASUS41 KOKX 250106 RWROKX Regional Weather Roundup National Weather Service New York NY 900 PM EDT TUE APR 24 2018 Note: "FAIR" indicates few or no clouds below 12,000 feet with no significant weather and/or obstructions to visibility. NYZ071-072-176-178-NJZ106-104-250200- New York City Metro Area CITY SKY/WX TMP DP RH WIND PRES REMARKS Central Park CLOUDY 57 40 52 SE6 30.25S Bronx Bot Gard N/A 55 37 50 E3 30.25S Bronx Lehman C N/A 57 37 47 SE8 N/A LaGuardia Arpt CLOUDY 58 40 51 SE12 30.22S Queens College N/A 54 43 66 SE12 N/A Kennedy Intl LGT RAIN 53 46 77 E14 30.23S Breezy Point N/A 50 N/A N/A E12 N/A Brooklyn Coll N/A 54 45 71 E13 N/A Staten Island N/A 52 45 76 SE14 N/A Newark/Liberty CLOUDY 57 44 62 E6G16 30.22S Teterboro CLOUDY 58 39 49 E12 30.21S $$ NYZ177-179-078>081-250200- Long Island New York CITY SKY/WX TMP DP RH WIND PRES REMARKS Jones Beach N/A 52 N/A N/A E13G20 N/A Wantagh N/A 54 45 71 E10 N/A Hempstead N/A 55 45 67 E6 30.26S Matinecock Pt N/A 55 N/A N/A SE9 N/A Farmingdale CLOUDY 55 43 63 SE14 30.24S MacArthur/ISP CLOUDY 55 43 63 SE14 30.24S Stony Brook N/A 55 39 54 SE5 N/A Shirley CLOUDY 54 43 66 SE6 30.26S Mt Sinai Harb N/A N/A N/A N/A SE7 N/A Westhampton CLOUDY 53 40 61 SE8 30.27S East Hampton CLOUDY 50 41 69 SE12 30.27S Southold N/A 52 41 66 SE6 N/A Montauk N/A 53 41 63 VRB7 30.29S $$ NYZ052-065-067-250200- Hudson Valley CITY SKY/WX TMP DP RH WIND PRES REMARKS White Plains MOCLDY 54 35 48 SE9 30.22F Larchmont Harb N/A 52 N/A N/A NE5 N/A Croton On Huds N/A 57 N/A N/A NE7 N/A Somers N/A 54 39 58 SE8 N/A Brewster N/A 54 37 54 S5 N/A Newburgh MOCLDY 57 43 58 VRB6 30.23R Montgomery CLOUDY 57 41 55 SE7 30.21R Otisville N/A 55 41 58 S5 N/A Warwick N/A 55 43 62 SE9 N/A Suffern N/A 55 39 54 S5 N/A Poughkeepsie CLOUDY 58 39 49 VRB5 30.22R Albany CLOUDY 61 32 33 S12G22 30.18R $$ NJZ001-105-106-008-010-013-015-019>022-104-250200- New Jersey CITY SKY/WX TMP DP RH WIND PRES REMARKS Newark/Liberty CLOUDY 57 44 62 E6G16 30.22S Teterboro CLOUDY 58 39 49 E12 30.21S Caldwell MOCLDY 56 40 55 SE8 30.22S Somerville MOCLDY 55 44 66 SE7 30.19S Linden CLOUDY 54 43 67 S12G17 30.22F Perth Amboy N/A 52 N/A N/A E9 N/A Sussex FAIR 56 43 61 SE6 30.22R Andover N/A 54 42 64 MISG 30.21R Trenton MOCLDY 56 45 66 E9 30.17F Millville LGT RAIN 54 51 90 E13 30.12F Atlantic City LGT RAIN 55 52 89 E12G22 30.14F Wrightstown MOCLDY 55 48 76 E9 30.14 Toms River CLOUDY 55 49 80 E9 30.18F Belmar CLOUDY 53 46 77 MISG N/A $$ PAZ047>061-062-071-250200- Eastern Pennsylvania CITY SKY/WX TMP DP RH WIND PRES REMARKS Philadelphia LGT RAIN 56 47 71 E14 30.15F Allentown CLOUDY 59 42 53 E16 30.16F Scranton CLOUDY 57 42 57 SE7 30.15S $$ CTZ002-004>006-009-010-012-RIZ004-006-007-MAZ004-011-015-250200- Southern New England In CT CITY SKY/WX TMP DP RH WIND PRES REMARKS Bradley Intl CLOUDY 57 39 51 S10 30.25R Hartford MOCLDY 57 39 51 S10 30.26R Danbury FAIR 55 38 52 SE9 30.25R Wtrbury/Oxford MOCLDY 53 40 61 SE8 30.25S Norwalk Harbor N/A 50 N/A N/A E9 N/A Bridgeport FAIR 54 40 59 SE9 30.25S Meriden MOCLDY 55 39 54 S7 30.26R New Haven FAIR 53 41 63 SE10 30.26S Chester MOCLDY 52 39 62 SE3 30.27S Groton CLOUDY 50 43 77 SE14 30.27S Willimantic MOCLDY 55 36 48 S10 30.28R In RI CITY SKY/WX TMP DP RH WIND PRES REMARKS Providence CLOUDY 50 41 71 S12 30.30R Block Island CLOUDY 50 41 71 SE16 30.29S Westerly CLOUDY 50 42 74 SE12 30.29S In MA CITY SKY/WX TMP DP RH WIND PRES REMARKS Boston CLOUDY 54 36 50 S13 30.27R Worcester FAIR 52 37 56 S10 30.26R Westfield FAIR 56 38 50 S8 30.23R Provincetown FAIR 49 41 74 S13G21 30.32R Nantucket FAIR 45 42 89 SE6 30.33R $$ ANZ330-335-338-340-345-350-353-355-250200- Coastal Marine Observations STATION/POSITION TIME SKY/WX TEMP WIND PRES VSBY WAVE AIR SEA DIR/SP/G HT/PER (UTC) (F) (DEG/KT/KT) (MB) (MI) (FT/S) NY Harb Entrance 0050 50 47 100/ 14/ 16 1022.9 2/ 8 20 S Fire Island 2350 49 45 100/ 14/ 14 1023.4 2/ 8 23 SSW Montauk P 2350 48 45 130/ 12/ 14 1025.2 2/ 8 15 E Barnegat Li 0030 46 N/A 4/ 6 Hudson Canyon 0050 51 47 100/ 14/ 16 1022.2 5/ 6 Kings Point 0042 56 48 160/ 4/ 8 1024.5 Execution Rocks NOT AVBL Western LI Sound NOT AVBL Central LI Sound 0030 49 120/ 6/ 6 N/A 0 Robbins Reef 0042 55 110/ 19/ 22 1023.7 $$ >>>>>>>>>>>>>>>>>>>>>>>>>>>> KEY <<<<<<<<<<<<<<<<<<<<<<<<<<< > < > SKY/WX - Sky Condition/Present Weather < > TMP - Temperature in Fahrenheit < > DP - Dew Point in Fahrenheit < > RH - Relative Humidity in Percent < > WIND - Direction (from) and Speed in MPH < > PRES - Mean Sea Level Pressure (inches of Hg) < > WCI - Wind Chill Index < > VSB - Visibility in Miles < > HX - Heat Index < > TC - Temperature in Celsius < > VRB - Varibale Wind Direction < > < >>>>>>>>>>>>>>>>>>>>>>>>>>>> KEY <<<<<<<<<<<<<<<<<<<<<<<<<<<

USA.gov is the U.S. government's official web portal to all federal, state and local government web resources and services.